Hourly Data Report for August 10, 2002

SHERBROOKE A
QUEBEC

45°26'00.000" N
71°41'00.000" W
241.40 m
7028124
71610
YSC

Download Data

Hourly Data (August 2002)
Hourly Data Report for August 10, 2002
TIME
LST
Temp Definition
°C
Dew Point Definition
°C
Rel Hum Definition
%
Precip. Amount Definition
mm

Wind Dir Definition
10's deg

Wind Spd Definition
km/h
Visibility Definition
km
Stn Press Definition
kPa
Hmdx Definition


Wind Chill Definition


Weather Definition


00:00 14.2 13.4 95   35 4 15.0 99.13      
01:00 14.5 13.8 96     0 15.0 99.13      
02:00 14.3 13.7 96     0 15.0 99.13      
03:00 14.4 13.5 94   11 6 15.0 99.12      
04:00 14.6 13.7 94     0 15.0 99.11      
05:00 14.4 13.8 96     0 15.0 99.13      
06:00 15.6 14.1 91   23 4 15.0 99.17      
07:00 16.5 14.3 87   17 6 24.1 99.18     Drizzle
08:00 17.6 14.8 84   23 6 24.1 99.18     Cloudy
09:00 20.0 14.9 72   21 11 24.1 99.14     Mostly Cloudy
10:00 20.9 15.2 70   22 7 24.1 99.12 25   Mostly Cloudy
11:00 23.6 15.0 59   20 15 24.1 99.08 28   Mostly Cloudy
12:00 24.5 15.1 56   23 19 24.1 99.02 29   Mainly Clear
13:00 26.2 16.5 55   21 15 24.1 98.97 31   Mainly Clear
14:00 26.8 16.6 54   23 15 24.1 98.94 32   Mainly Clear
15:00 26.6 16.2 53   24 13 24.1 98.91 31   Mainly Clear
16:00 26.2 15.2 51   22 15 24.1 98.88 30   Mainly Clear
17:00 25.8 15.3 52   23 15 15.0 98.85 30    
18:00 24.7 16.3 60   22 6 15.0 98.83 30    
19:00 21.9 16.2 70   19 6 15.0 98.84 27    
20:00 18.8 15.6 82   18 4 15.0 98.90      
21:00 16.7 14.7 88   19 6 15.0 98.90      
22:00 14.7 14.0 96     0 15.0 98.91      
23:00 14.2 13.4 95     0 15.0 98.91      

Notes on Data Quality.

Legend

  • E = Estimated
  • M = Missing
  • NA = Not Available*
  • [empty] = Indicates an unobserved value
Date modified: